UKV1502 VILH-LGSM

Flight info

Callsign UKV1502
Flight time N/A
Altitude 36000
Route RN J139 FATEH J165 NONIB L509 TAPIS P173 BUDMI/N0473F380 P173 DAVET B475 DOLOS B449 DUKAN N449 INDUR UB374 ELTOX UN161 YAVUZ UB374 ALVAR UN161 ERZ UA4 DAMAT UL615 ARKIN/N0476F400 UL615 SIV UA285 GEM UW705 HAY UR32 KFK UT54 KINIK UR32 TUMER UT54 VAKUM UR32 LASON UT54 IMR UR32 NISOS H59 ORMOS
Aircraft B77L/H-SDE1E2E3FGHIJ2J3J4J5M1RWXY/LB1D1

Departure

Time 2026-04-18 06:31
Airport Leh Kushok Bakula Rimpochee Airport (VILH)

Arrival

Time N/A
Airport Samos Airport (LGSM)
Time Latitude Longitude Altitude Speed Heading
2026-04-18 06:12 34.14035 77.55118 10835 ft 0 kts 331°
2026-04-18 06:15 34.14046 77.55110 10835 ft 4 kts 331°
2026-04-18 06:15 34.14070 77.55095 10835 ft 4 kts 331°
2026-04-18 06:15 34.14070 77.55094 10835 ft 0 kts 331°
2026-04-18 06:22 34.14083 77.55073 10837 ft 4 kts 292°
2026-04-18 06:23 34.14084 77.55038 10837 ft 4 kts 265°
2026-04-18 06:23 34.14066 77.55015 10838 ft 4 kts 191°
2026-04-18 06:23 34.14039 77.55035 10836 ft 5 kts 135°
2026-04-18 06:23 34.14018 77.55065 10835 ft 5 kts 120°
2026-04-18 06:24 34.14014 77.55104 10835 ft 5 kts 85°
2026-04-18 06:24 34.14029 77.55140 10835 ft 5 kts 55°
2026-04-18 06:24 34.14046 77.55175 10835 ft 5 kts 60°
2026-04-18 06:24 34.14067 77.55219 10835 ft 10 kts 61°
2026-04-18 06:25 34.14104 77.55302 10836 ft 10 kts 63°
2026-04-18 06:25 34.14103 77.55382 10835 ft 10 kts 130°
2026-04-18 06:25 34.14053 77.55426 10835 ft 5 kts 104°
2026-04-18 06:25 34.14053 77.55471 10835 ft 5 kts 90°
2026-04-18 06:26 34.14053 77.55516 10836 ft 5 kts 90°
2026-04-18 06:26 34.14053 77.55561 10836 ft 5 kts 90°
2026-04-18 06:26 34.14051 77.55606 10836 ft 5 kts 95°
2026-04-18 06:26 34.14047 77.55651 10837 ft 5 kts 96°
2026-04-18 06:27 34.14046 77.55697 10837 ft 5 kts 90°
2026-04-18 06:27 34.14046 77.55742 10836 ft 5 kts 90°
2026-04-18 06:27 34.14046 77.55787 10836 ft 5 kts 89°
2026-04-18 06:27 34.14051 77.55835 10835 ft 8 kts 78°
2026-04-18 06:28 34.14052 77.55931 10836 ft 13 kts 91°
2026-04-18 06:28 34.14057 77.56037 10838 ft 12 kts 82°
2026-04-18 06:28 34.14049 77.56096 10850 ft 1 kts 138°
2026-04-18 06:28 34.14042 77.56098 10849 ft 2 kts 161°
2026-04-18 06:29 34.14019 77.56089 10846 ft 7 kts 217°
2026-04-18 06:29 34.14010 77.56054 10836 ft 1 kts 257°
2026-04-18 06:29 34.14010 77.56053 10836 ft 0 kts 257°
2026-04-18 06:30 34.13993 77.55982 10836 ft 35 kts 253°
2026-04-18 06:30 34.13836 77.55431 10835 ft 102 kts 251°
2026-04-18 06:31 34.13531 77.54384 10835 ft 161 kts 250°
2026-04-18 06:31 34.13082 77.52961 10953 ft 192 kts 246°
2026-04-18 06:31 34.12599 77.51465 11495 ft 191 kts 248°
2026-04-18 06:31 34.12214 77.49908 11997 ft 197 kts 253°
2026-04-18 06:32 34.11960 77.48255 12395 ft 204 kts 262°
2026-04-18 06:32 34.11867 77.46577 12993 ft 199 kts 265°
2026-04-18 06:32 34.11817 77.44927 13651 ft 197 kts 266°
2026-04-18 06:32 34.11855 77.43294 14212 ft 192 kts 272°
2026-04-18 06:33 34.12101 77.41705 14538 ft 195 kts 286°
2026-04-18 06:33 34.12596 77.40158 14848 ft 196 kts 283°
2026-04-18 06:33 34.13140 77.38639 15092 ft 204 kts 306°
2026-04-18 06:33 34.13863 77.37182 15217 ft 199 kts 285°
2026-04-18 06:34 34.14475 77.35671 15362 ft 208 kts 310°
2026-04-18 06:34 34.15439 77.34369 15629 ft 206 kts 311°
2026-04-18 06:34 34.16403 77.33085 15893 ft 212 kts 310°
2026-04-18 06:34 34.17439 77.31702 15754 ft 240 kts 311°
2026-04-18 06:35 34.18622 77.30125 15814 ft 264 kts 311°
2026-04-18 06:35 34.19846 77.28422 16238 ft 271 kts 301°
2026-04-18 06:35 34.20633 77.26366 16771 ft 270 kts 289°
2026-04-18 06:35 34.21290 77.24218 17328 ft 275 kts 289°
2026-04-18 06:36 34.21951 77.22034 17864 ft 280 kts 288°
2026-04-18 06:36 34.22617 77.19806 18388 ft 283 kts 288°
2026-04-18 06:36 34.23290 77.17555 18940 ft 287 kts 288°
2026-04-18 06:36 34.23674 77.15243 19329 ft 289 kts 265°
2026-04-18 06:37 34.23394 77.12736 19521 ft 308 kts 257°
2026-04-18 06:37 34.22963 77.10138 19653 ft 330 kts 257°
2026-04-18 06:37 34.22495 77.07330 19831 ft 352 kts 257°
2026-04-18 06:37 34.22020 77.04336 19983 ft 375 kts 258°
2026-04-18 06:38 34.21547 77.01140 20157 ft 397 kts 259°
2026-04-18 06:38 34.21080 76.97769 20318 ft 418 kts 259°
2026-04-18 06:38 34.20603 76.94220 20596 ft 435 kts 259°
2026-04-18 06:38 34.20124 76.90560 21044 ft 445 kts 260°
2026-04-18 06:39 34.19645 76.86847 21574 ft 451 kts 260°
2026-04-18 06:39 34.19170 76.83082 22192 ft 454 kts 260°
2026-04-18 06:39 34.18805 76.80209 22674 ft 456 kts 260°
2026-04-18 06:40 34.18744 76.79730 22730 ft 457 kts 260°
2026-04-18 06:40 34.18261 76.75930 23314 ft 460 kts 260°
2026-04-18 06:40 34.17770 76.72092 23854 ft 464 kts 260°
2026-04-18 06:40 34.17275 76.68224 24373 ft 468 kts 260°
2026-04-18 06:41 34.16777 76.64318 24868 ft 472 kts 260°
2026-04-18 06:41 34.16280 76.60447 25339 ft 475 kts 260°
2026-04-18 06:41 34.15768 76.56485 25800 ft 479 kts 260°
2026-04-18 06:41 34.15252 76.52509 26239 ft 482 kts 260°
2026-04-18 06:42 34.14730 76.48494 26676 ft 485 kts 260°
2026-04-18 06:42 34.14205 76.44467 27097 ft 488 kts 260°
2026-04-18 06:42 34.13673 76.40398 27531 ft 491 kts 260°
2026-04-18 06:42 34.13140 76.36309 27951 ft 495 kts 260°
2026-04-18 06:43 34.12601 76.32200 28347 ft 498 kts 260°
2026-04-18 06:43 34.12059 76.28065 28714 ft 500 kts 260°
2026-04-18 06:43 34.11509 76.23904 29064 ft 503 kts 260°
2026-04-18 06:43 34.10962 76.19788 29376 ft 506 kts 260°
2026-04-18 06:44 34.10403 76.15582 29700 ft 509 kts 260°
2026-04-18 06:44 34.09844 76.11375 30118 ft 509 kts 260°
2026-04-18 06:44 34.09283 76.07160 30597 ft 507 kts 260°
2026-04-18 06:44 34.08721 76.02961 31135 ft 506 kts 260°
2026-04-18 06:45 34.08161 75.98790 31640 ft 504 kts 259°
2026-04-18 06:45 34.07600 75.94616 32125 ft 503 kts 259°
2026-04-18 06:45 34.07040 75.90464 32568 ft 502 kts 259°
2026-04-18 06:45 34.06478 75.86307 33008 ft 501 kts 259°
2026-04-18 06:46 34.05923 75.82210 33433 ft 501 kts 259°
2026-04-18 06:46 34.05362 75.78081 33854 ft 499 kts 259°
2026-04-18 06:46 34.04799 75.73949 34251 ft 499 kts 259°
2026-04-18 06:46 34.04234 75.69820 34656 ft 498 kts 259°
2026-04-18 06:47 34.03671 75.65710 35071 ft 497 kts 259°
2026-04-18 06:47 34.03107 75.61597 35484 ft 496 kts 259°
2026-04-18 06:47 34.02544 75.57506 35866 ft 496 kts 259°
2026-04-18 06:47 34.01977 75.53402 36071 ft 497 kts 259°
2026-04-18 06:48 34.01405 75.49276 36040 ft 499 kts 259°
2026-04-18 06:48 34.00267 75.41071 36036 ft 495 kts 259°
2026-04-18 06:49 33.99127 75.32920 36052 ft 492 kts 259°
2026-04-18 06:49 33.97996 75.24849 36061 ft 492 kts 259°
2026-04-18 06:50 33.96847 75.16705 36034 ft 492 kts 259°
2026-04-18 06:50 33.95696 75.08575 36055 ft 493 kts 259°
2026-04-18 06:51 33.94535 75.00430 36050 ft 494 kts 259°
2026-04-18 06:51 33.93369 74.92270 36035 ft 495 kts 259°
2026-04-18 06:52 33.92202 74.84146 36050 ft 495 kts 259°
2026-04-18 06:52 33.91021 74.75975 36047 ft 496 kts 259°
2026-04-18 06:53 33.89834 74.67801 36055 ft 496 kts 259°
2026-04-18 06:53 33.88642 74.59625 36051 ft 496 kts 259°
2026-04-18 06:54 33.87451 74.51496 36049 ft 496 kts 259°
2026-04-18 06:54 33.86247 74.43325 36036 ft 496 kts 259°
2026-04-18 06:55 33.85039 74.35166 36054 ft 496 kts 259°
2026-04-18 06:55 33.83827 74.27004 36035 ft 496 kts 258°
2026-04-18 06:56 33.82609 74.18841 36035 ft 495 kts 259°
2026-04-18 06:56 33.81387 74.10700 36036 ft 495 kts 258°
2026-04-18 06:57 33.80159 74.02569 36052 ft 494 kts 258°
2026-04-18 06:57 33.78317 73.90421 36053 ft 495 kts 258°
2026-04-18 06:58 33.77078 73.82286 36047 ft 495 kts 258°
2026-04-18 06:58 33.75831 73.74150 36047 ft 495 kts 258°
2026-04-18 06:59 33.74579 73.66017 36047 ft 495 kts 258°
2026-04-18 06:59 33.73330 73.57940 36054 ft 494 kts 258°
2026-04-18 07:00 33.72068 73.49823 36060 ft 495 kts 258°
2026-04-18 07:00 33.70803 73.41700 36035 ft 495 kts 258°
2026-04-18 07:01 33.69530 73.33568 36055 ft 495 kts 258°
2026-04-18 07:01 33.68252 73.25453 36048 ft 495 kts 258°
2026-04-18 07:02 33.66967 73.17331 36049 ft 495 kts 258°
2026-04-18 07:02 33.65687 73.09277 36036 ft 495 kts 258°
2026-04-18 07:03 33.64395 73.01168 36048 ft 495 kts 258°
2026-04-18 07:03 33.63096 72.93054 36051 ft 495 kts 258°
2026-04-18 07:04 33.61793 72.84954 36051 ft 495 kts 258°
2026-04-18 07:04 33.60484 72.76855 36050 ft 495 kts 258°
2026-04-18 07:05 33.59178 72.68804 36045 ft 495 kts 258°
2026-04-18 07:05 33.58011 72.60669 36049 ft 496 kts 264°
2026-04-18 07:06 33.57556 72.52427 36047 ft 496 kts 265°
2026-04-18 07:06 33.57162 72.44170 36049 ft 496 kts 265°
2026-04-18 07:07 33.56802 72.37303 36048 ft 496 kts 265°
2026-04-18 07:07 33.56261 72.27710 36056 ft 496 kts 265°
2026-04-18 07:08 33.55787 72.19452 36049 ft 497 kts 265°
2026-04-18 07:08 33.55392 72.12591 36044 ft 496 kts 265°
2026-04-18 07:09 33.54912 72.04350 36051 ft 496 kts 265°
2026-04-18 07:09 33.54347 71.94763 36054 ft 496 kts 265°
2026-04-18 07:10 33.53939 71.87911 36047 ft 496 kts 265°
2026-04-18 07:10 33.53450 71.79671 36048 ft 496 kts 265°
2026-04-18 07:11 33.52968 71.71430 36052 ft 496 kts 265°
2026-04-18 07:11 33.52403 71.61839 36056 ft 497 kts 265°
2026-04-18 07:12 33.51990 71.54919 36047 ft 497 kts 265°
2026-04-18 07:12 33.51495 71.46727 36053 ft 496 kts 265°
2026-04-18 07:13 33.50988 71.38484 36048 ft 496 kts 265°
2026-04-18 07:13 33.50479 71.30245 36048 ft 496 kts 265°
2026-04-18 07:14 33.49966 71.22045 36047 ft 496 kts 264°
2026-04-18 07:14 33.49447 71.13809 36051 ft 496 kts 264°
2026-04-18 07:15 33.49030 71.05571 36028 ft 495 kts 273°
2026-04-18 07:15 33.49706 71.01541 36053 ft 496 kts 289°
2026-04-18 07:15 33.51227 70.97842 36047 ft 498 kts 303°
2026-04-18 07:16 33.53490 70.94709 36056 ft 496 kts 316°
2026-04-18 07:16 33.56048 70.91910 36058 ft 498 kts 317°
2026-04-18 07:16 33.61171 70.86364 36055 ft 501 kts 317°
2026-04-18 07:17 33.66298 70.80671 36042 ft 503 kts 316°
2026-04-18 07:17 33.71401 70.74898 36053 ft 505 kts 316°
2026-04-18 07:18 33.76515 70.69092 36053 ft 505 kts 316°
2026-04-18 07:18 33.81589 70.63332 36048 ft 505 kts 316°
2026-04-18 07:19 33.86687 70.57535 36053 ft 504 kts 316°
2026-04-18 07:19 33.91645 70.51597 36055 ft 502 kts 309°
2026-04-18 07:20 33.95700 70.44783 36031 ft 500 kts 298°
2026-04-18 07:20 33.98957 70.37384 36033 ft 499 kts 296°
2026-04-18 07:21 34.02151 70.29960 36053 ft 499 kts 297°
2026-04-18 07:21 34.05358 70.22604 36046 ft 499 kts 297°
2026-04-18 07:22 34.08608 70.15195 36034 ft 500 kts 297°
2026-04-18 07:22 34.11852 70.07786 36054 ft 500 kts 297°
2026-04-18 07:23 34.15092 70.00362 36056 ft 500 kts 297°
2026-04-18 07:23 34.18327 69.92933 36033 ft 500 kts 297°
2026-04-18 07:24 34.21531 69.85535 36052 ft 499 kts 297°
2026-04-18 07:24 34.24741 69.78096 36055 ft 499 kts 297°
2026-04-18 07:25 34.27948 69.70645 36034 ft 500 kts 297°
2026-04-18 07:25 34.31158 69.63183 36047 ft 500 kts 297°
2026-04-18 07:26 34.34342 69.55758 36058 ft 500 kts 296°
2026-04-18 07:26 34.37538 69.48287 36050 ft 500 kts 296°
2026-04-18 07:27 34.40733 69.40808 36058 ft 500 kts 296°
2026-04-18 07:27 34.43921 69.33327 36049 ft 500 kts 296°
2026-04-18 07:28 34.47085 69.25884 36052 ft 500 kts 296°
2026-04-18 07:28 34.50274 69.18374 36032 ft 501 kts 296°
2026-04-18 07:29 34.53865 69.11163 36048 ft 501 kts 305°
2026-04-18 07:29 34.57988 69.04356 36035 ft 501 kts 306°
2026-04-18 07:30 34.62134 68.97549 36053 ft 501 kts 306°
2026-04-18 07:30 34.66209 68.90765 36054 ft 501 kts 305°
2026-04-18 07:31 34.70294 68.83904 36036 ft 501 kts 305°
2026-04-18 07:31 34.74377 68.77026 36035 ft 502 kts 305°
2026-04-18 07:32 34.78431 68.70188 36055 ft 502 kts 305°
2026-04-18 07:32 34.82508 68.63305 36054 ft 502 kts 305°
2026-04-18 07:33 34.86580 68.56413 36058 ft 501 kts 305°
2026-04-18 07:33 34.90652 68.49508 36052 ft 501 kts 305°
2026-04-18 07:34 34.94711 68.42613 36054 ft 500 kts 305°
2026-04-18 07:34 34.98764 68.35713 36034 ft 500 kts 305°
2026-04-18 07:35 35.02782 68.28862 36054 ft 500 kts 305°
2026-04-18 07:35 35.06814 68.21941 36052 ft 500 kts 304°
2026-04-18 07:36 35.10774 68.14953 36036 ft 500 kts 304°
2026-04-18 07:36 35.14718 68.07949 36034 ft 501 kts 304°
2026-04-18 07:37 35.18673 68.00945 36050 ft 500 kts 304°
2026-04-18 07:37 35.22617 67.93952 36034 ft 500 kts 304°
2026-04-18 07:38 35.26547 67.86969 36121 ft 504 kts 304°
2026-04-18 07:38 35.28366 67.83730 36394 ft 504 kts 304°
2026-04-18 07:38 35.28869 67.82836 36493 ft 504 kts 304°
2026-04-18 07:39 35.29545 67.81636 36621 ft 503 kts 304°
2026-04-18 07:39 35.31542 67.78121 36999 ft 502 kts 304°
2026-04-18 07:39 35.33540 67.74627 37374 ft 501 kts 304°
2026-04-18 07:39 35.35538 67.71140 37691 ft 500 kts 304°
2026-04-18 07:40 35.37537 67.67644 37951 ft 500 kts 304°
2026-04-18 07:40 35.39539 67.64139 38001 ft 503 kts 304°
2026-04-18 07:40 35.43545 67.57101 38036 ft 503 kts 304°
2026-04-18 07:41 35.47500 67.50132 38035 ft 500 kts 304°
2026-04-18 07:41 35.51451 67.43153 38048 ft 497 kts 304°
2026-04-18 07:42 35.55394 67.36181 38042 ft 496 kts 304°
2026-04-18 07:42 35.59310 67.29236 38054 ft 497 kts 304°
2026-04-18 07:43 35.63239 67.22257 38050 ft 498 kts 304°
2026-04-18 07:43 35.67155 67.15286 38048 ft 499 kts 304°
2026-04-18 07:44 35.71099 67.08251 38044 ft 501 kts 304°
2026-04-18 07:44 35.75055 67.01180 38046 ft 501 kts 304°
2026-04-18 07:45 35.79010 66.94102 38046 ft 502 kts 304°
2026-04-18 07:45 35.82969 66.87019 38045 ft 502 kts 304°
2026-04-18 07:46 35.86935 66.79934 38049 ft 502 kts 304°
2026-04-18 07:46 35.90897 66.72840 38051 ft 502 kts 304°
2026-04-18 07:47 35.94837 66.65773 38041 ft 502 kts 304°
2026-04-18 07:47 35.98784 66.58668 38045 ft 502 kts 304°
2026-04-18 07:48 36.02723 66.51571 38049 ft 501 kts 304°
2026-04-18 07:48 36.06652 66.44473 38044 ft 501 kts 303°
2026-04-18 07:49 36.10579 66.37360 38046 ft 500 kts 303°
2026-04-18 07:49 36.14472 66.30302 38046 ft 500 kts 303°
2026-04-18 07:50 36.18382 66.23193 38048 ft 500 kts 303°
2026-04-18 07:50 36.22293 66.16071 38046 ft 500 kts 303°
2026-04-18 07:51 36.26197 66.08944 38047 ft 500 kts 303°
2026-04-18 07:51 36.30095 66.01815 38045 ft 500 kts 303°
2026-04-18 07:52 36.33992 65.94670 38047 ft 500 kts 303°
2026-04-18 07:52 36.37855 65.87569 38045 ft 500 kts 303°
2026-04-18 07:53 36.41744 65.80410 38044 ft 500 kts 303°
2026-04-18 07:53 36.45631 65.73243 38047 ft 500 kts 303°
2026-04-18 07:54 36.49509 65.66069 38047 ft 500 kts 303°
2026-04-18 07:54 36.53393 65.58872 38047 ft 501 kts 303°
2026-04-18 07:55 36.57242 65.51724 38045 ft 501 kts 303°
2026-04-18 07:55 36.61116 65.44511 38047 ft 501 kts 303°
2026-04-18 07:56 36.64982 65.37303 38045 ft 501 kts 303°
2026-04-18 07:56 36.68851 65.30075 38047 ft 501 kts 303°
2026-04-18 07:57 36.72707 65.22855 38045 ft 501 kts 303°
2026-04-18 07:57 36.76534 65.15669 38047 ft 500 kts 303°
2026-04-18 07:58 36.82301 65.04812 38048 ft 500 kts 303°
2026-04-18 07:59 36.86141 64.97567 38045 ft 501 kts 303°
2026-04-18 07:59 36.89980 64.90309 38049 ft 501 kts 303°
2026-04-18 08:00 36.93805 64.83042 38045 ft 500 kts 301°
2026-04-18 08:00 36.96907 64.75349 38048 ft 499 kts 290°
2026-04-18 08:01 36.99015 64.67102 38047 ft 498 kts 285°
2026-04-18 08:01 37.00956 64.58770 38049 ft 499 kts 285°
2026-04-18 08:02 37.02913 64.50446 38046 ft 499 kts 285°
2026-04-18 08:02 37.04884 64.42176 38048 ft 499 kts 285°
2026-04-18 08:03 37.06874 64.33849 38045 ft 500 kts 285°
2026-04-18 08:03 37.08862 64.25500 38046 ft 500 kts 285°
2026-04-18 08:04 37.10839 64.17161 38045 ft 500 kts 285°
2026-04-18 08:04 37.12796 64.08873 38046 ft 500 kts 285°
2026-04-18 08:05 37.14759 64.00529 38047 ft 499 kts 285°
2026-04-18 08:05 37.16717 63.92173 38046 ft 499 kts 285°
2026-04-18 08:06 37.18664 63.83830 38046 ft 499 kts 285°
2026-04-18 08:06 37.20594 63.75542 38047 ft 499 kts 285°
2026-04-18 08:07 37.22531 63.67192 38047 ft 499 kts 285°
2026-04-18 08:07 37.24464 63.58833 38046 ft 499 kts 285°
2026-04-18 08:08 37.26392 63.50464 38045 ft 499 kts 285°
2026-04-18 08:08 37.28311 63.42102 38047 ft 499 kts 285°
2026-04-18 08:09 37.30213 63.33790 38046 ft 499 kts 285°
2026-04-18 08:09 37.32122 63.25408 38046 ft 498 kts 285°
2026-04-18 08:10 37.34022 63.17037 38044 ft 498 kts 285°
2026-04-18 08:10 37.35917 63.08665 38047 ft 498 kts 285°
2026-04-18 08:11 37.37794 63.00342 38046 ft 498 kts 285°
2026-04-18 08:11 37.39678 62.91954 38047 ft 499 kts 285°
2026-04-18 08:12 37.41560 62.83541 38046 ft 499 kts 285°
2026-04-18 08:12 37.43434 62.75141 38046 ft 499 kts 285°
2026-04-18 08:13 37.45287 62.66794 38046 ft 499 kts 284°
2026-04-18 08:13 37.47147 62.58387 38047 ft 499 kts 284°
2026-04-18 08:14 37.49002 62.49976 38045 ft 498 kts 284°
2026-04-18 08:14 37.50849 62.41562 38047 ft 498 kts 284°
2026-04-18 08:15 37.52692 62.33152 38046 ft 499 kts 284°
2026-04-18 08:15 37.54519 62.24780 38045 ft 499 kts 284°
2026-04-18 08:16 37.56352 62.16342 38048 ft 499 kts 284°
2026-04-18 08:16 37.58178 62.07894 38048 ft 500 kts 284°
2026-04-18 08:17 37.59989 61.99495 38046 ft 500 kts 284°
2026-04-18 08:17 37.61806 61.91037 38049 ft 500 kts 284°
2026-04-18 08:18 37.63687 61.82595 38046 ft 500 kts 285°
2026-04-18 08:18 37.65668 61.74190 38046 ft 499 kts 285°
2026-04-18 08:19 37.67563 61.66132 38045 ft 499 kts 285°
2026-04-18 08:19 37.69513 61.57725 38046 ft 499 kts 285°
2026-04-18 08:20 37.71450 61.49313 38046 ft 499 kts 285°
2026-04-18 08:20 37.73381 61.40903 38048 ft 498 kts 285°
2026-04-18 08:21 37.75290 61.32546 38044 ft 498 kts 285°
2026-04-18 08:21 37.77202 61.24138 38050 ft 498 kts 285°
2026-04-18 08:22 37.79111 61.15720 38046 ft 498 kts 285°
2026-04-18 08:22 37.81016 61.07298 38046 ft 499 kts 285°
2026-04-18 08:23 37.82918 60.98855 38048 ft 499 kts 285°
2026-04-18 08:23 37.84800 60.90473 38045 ft 499 kts 285°
2026-04-18 08:24 37.86687 60.82034 38047 ft 499 kts 285°
2026-04-18 08:24 37.88570 60.73584 38046 ft 499 kts 285°
2026-04-18 08:25 37.90450 60.65111 38049 ft 499 kts 285°
2026-04-18 08:25 37.92310 60.56702 38043 ft 499 kts 284°
2026-04-18 08:26 37.94177 60.48231 38048 ft 499 kts 284°
2026-04-18 08:26 37.96037 60.39753 38046 ft 500 kts 284°
2026-04-18 08:27 37.97891 60.31272 38046 ft 500 kts 284°
2026-04-18 08:27 37.99740 60.22784 38045 ft 500 kts 284°
2026-04-18 08:28 38.01573 60.14338 38045 ft 499 kts 284°
2026-04-18 08:28 38.03399 60.05848 38048 ft 499 kts 284°
2026-04-18 08:29 38.05217 59.97360 38044 ft 499 kts 284°
2026-04-18 08:29 38.07029 59.88857 38045 ft 498 kts 284°
2026-04-18 08:30 38.08833 59.80367 38048 ft 498 kts 284°
2026-04-18 08:30 38.10619 59.71941 38046 ft 498 kts 284°
2026-04-18 08:31 38.12409 59.63451 38047 ft 498 kts 284°
2026-04-18 08:31 38.14199 59.54935 38046 ft 498 kts 284°
2026-04-18 08:32 38.15967 59.46480 38047 ft 499 kts 284°
2026-04-18 08:32 38.17742 59.37967 38047 ft 499 kts 284°
2026-04-18 08:33 38.19513 59.29439 38046 ft 499 kts 284°
2026-04-18 08:33 38.21278 59.20903 38047 ft 500 kts 284°
2026-04-18 08:34 38.23043 59.12343 38046 ft 500 kts 284°
2026-04-18 08:34 38.24786 59.03853 38046 ft 500 kts 284°
2026-04-18 08:35 38.26533 58.95296 38047 ft 500 kts 283°
2026-04-18 08:35 38.28275 58.86737 38046 ft 500 kts 283°
2026-04-18 08:36 38.30011 58.78175 38046 ft 500 kts 283°
2026-04-18 08:36 38.31730 58.69662 38046 ft 499 kts 283°
2026-04-18 08:37 38.33451 58.61099 38046 ft 499 kts 283°
2026-04-18 08:37 38.35166 58.52539 38046 ft 499 kts 283°
2026-04-18 08:38 38.36871 58.43988 38047 ft 498 kts 283°
2026-04-18 08:38 38.38574 58.35412 38045 ft 498 kts 283°
2026-04-18 08:39 38.40430 58.26982 38050 ft 499 kts 289°
2026-04-18 08:39 38.43196 58.18900 38049 ft 499 kts 294°
2026-04-18 08:40 38.46131 58.10857 38046 ft 499 kts 294°
2026-04-18 08:40 38.49019 58.02804 38047 ft 500 kts 294°
2026-04-18 08:41 38.51859 57.94763 38046 ft 500 kts 293°
2026-04-18 08:41 38.54706 57.86657 38046 ft 500 kts 293°
2026-04-18 08:42 38.57546 57.78565 38047 ft 500 kts 293°
2026-04-18 08:42 38.60393 57.70434 38044 ft 500 kts 293°
2026-04-18 08:43 38.63057 57.62286 38049 ft 500 kts 290°
2026-04-18 08:43 38.65438 57.53932 38048 ft 500 kts 289°
2026-04-18 08:44 38.67782 57.45548 38047 ft 501 kts 289°
2026-04-18 08:44 38.70135 57.37216 38046 ft 500 kts 289°
2026-04-18 08:45 38.72506 57.28855 38046 ft 500 kts 289°
2026-04-18 08:45 38.74875 57.20477 38046 ft 500 kts 289°
2026-04-18 08:46 38.77238 57.12095 38047 ft 499 kts 289°
2026-04-18 08:46 38.79589 57.03729 38047 ft 499 kts 289°
2026-04-18 08:47 38.81938 56.95343 38046 ft 499 kts 289°
2026-04-18 08:47 38.84262 56.87014 38047 ft 500 kts 289°
2026-04-18 08:48 38.86595 56.78627 38046 ft 500 kts 289°
2026-04-18 08:48 38.88926 56.70222 38050 ft 500 kts 289°
2026-04-18 08:49 38.91253 56.61801 38044 ft 500 kts 289°
2026-04-18 08:49 38.93570 56.53387 38049 ft 500 kts 288°
2026-04-18 08:50 38.95867 56.45021 38045 ft 501 kts 288°
2026-04-18 08:50 38.98178 56.36582 38047 ft 500 kts 288°
2026-04-18 08:51 39.00471 56.28139 38046 ft 500 kts 287°
2026-04-18 08:51 39.02480 56.19587 38048 ft 499 kts 285°
2026-04-18 08:52 39.04353 56.11050 38043 ft 499 kts 285°
2026-04-18 08:52 39.06270 56.02475 38046 ft 499 kts 285°
2026-04-18 08:53 39.08216 55.93898 38046 ft 499 kts 285°
2026-04-18 08:53 39.10160 55.85327 38048 ft 498 kts 285°
2026-04-18 08:54 39.12079 55.76802 38046 ft 499 kts 285°
2026-04-18 08:54 39.14004 55.68224 38047 ft 499 kts 285°
2026-04-18 08:55 39.15922 55.59646 38046 ft 499 kts 285°
2026-04-18 08:55 39.17838 55.51038 38047 ft 499 kts 285°
2026-04-18 08:56 39.19748 55.42444 38044 ft 499 kts 285°
2026-04-18 08:56 39.21642 55.33878 38045 ft 499 kts 285°
2026-04-18 08:57 39.24483 55.20965 38047 ft 499 kts 285°
2026-04-18 08:57 39.26371 55.12342 38045 ft 500 kts 285°
2026-04-18 08:58 39.28255 55.03702 38049 ft 499 kts 285°
2026-04-18 08:58 39.30118 54.95128 38049 ft 500 kts 285°
2026-04-18 08:59 39.31989 54.86487 38044 ft 500 kts 284°
2026-04-18 08:59 39.33851 54.77843 38046 ft 499 kts 284°
2026-04-18 09:00 39.35706 54.69202 38046 ft 499 kts 284°
2026-04-18 09:00 39.37558 54.60543 38046 ft 499 kts 284°
2026-04-18 09:01 39.39386 54.51957 38046 ft 499 kts 284°
2026-04-18 09:01 39.41221 54.43319 38047 ft 498 kts 284°
2026-04-18 09:02 39.43047 54.34675 38047 ft 499 kts 284°
2026-04-18 09:02 39.44870 54.26012 38047 ft 499 kts 284°
2026-04-18 09:03 39.46672 54.17413 38046 ft 499 kts 284°
2026-04-18 09:03 39.48481 54.08748 38047 ft 499 kts 284°
2026-04-18 09:04 39.50283 54.00075 38048 ft 499 kts 284°
2026-04-18 09:04 39.52066 53.91373 38046 ft 499 kts 284°
2026-04-18 09:05 39.53823 53.82734 38047 ft 500 kts 284°
2026-04-18 09:05 39.55586 53.74032 38047 ft 499 kts 284°
2026-04-18 09:06 39.57344 53.65327 38044 ft 500 kts 284°
2026-04-18 09:06 39.59100 53.56603 38050 ft 500 kts 284°
2026-04-18 09:07 39.60835 53.47944 38044 ft 500 kts 283°
2026-04-18 09:07 39.62574 53.39228 38046 ft 499 kts 283°
2026-04-18 09:08 39.64306 53.30510 38046 ft 499 kts 283°
2026-04-18 09:08 39.66035 53.21777 38048 ft 499 kts 283°
2026-04-18 09:09 39.67753 53.13051 38044 ft 499 kts 283°
2026-04-18 09:09 39.69453 53.04383 38047 ft 499 kts 283°
2026-04-18 09:10 39.71158 52.95655 38046 ft 499 kts 283°
2026-04-18 09:10 39.72857 52.86919 38044 ft 498 kts 283°
2026-04-18 09:11 39.74562 52.78188 38048 ft 499 kts 283°
2026-04-18 09:11 39.76293 52.69464 38045 ft 499 kts 283°
2026-04-18 09:12 39.78005 52.60795 38045 ft 498 kts 283°
2026-04-18 09:12 39.79719 52.52074 38047 ft 498 kts 283°
2026-04-18 09:13 39.81426 52.43329 38050 ft 499 kts 283°
2026-04-18 09:13 39.83128 52.34575 38046 ft 499 kts 283°
2026-04-18 09:14 39.84822 52.25818 38046 ft 499 kts 283°
2026-04-18 09:14 39.86510 52.17049 38048 ft 499 kts 283°
2026-04-18 09:15 39.88178 52.08345 38046 ft 499 kts 283°
2026-04-18 09:15 39.89853 51.99579 38047 ft 499 kts 283°
2026-04-18 09:16 39.91524 51.90791 38048 ft 500 kts 283°
2026-04-18 09:16 39.93188 51.82005 38045 ft 500 kts 283°
2026-04-18 09:17 39.94844 51.73214 38045 ft 499 kts 283°
2026-04-18 09:17 39.96484 51.64468 38047 ft 499 kts 283°
2026-04-18 09:18 39.98125 51.55688 38044 ft 499 kts 283°
2026-04-18 09:18 39.99602 51.46846 38047 ft 498 kts 278°
2026-04-18 09:19 40.00565 51.37911 38048 ft 498 kts 276°
2026-04-18 09:19 40.01464 51.28963 38046 ft 498 kts 276°
2026-04-18 09:20 40.02386 51.19999 38049 ft 498 kts 277°
2026-04-18 09:20 40.03316 51.11109 38046 ft 498 kts 277°
2026-04-18 09:21 40.04252 51.02156 38047 ft 498 kts 277°
2026-04-18 09:21 40.05179 50.93205 38045 ft 498 kts 277°
2026-04-18 09:22 40.06099 50.84233 38047 ft 498 kts 276°
2026-04-18 09:22 40.07003 50.75331 38047 ft 498 kts 276°
2026-04-18 09:23 40.07908 50.66366 38046 ft 498 kts 276°
2026-04-18 09:23 40.08807 50.57399 38047 ft 498 kts 276°
2026-04-18 09:24 40.09549 50.49935 38046 ft 498 kts 276°
2026-04-18 09:24 40.10578 50.39498 38046 ft 498 kts 276°
2026-04-18 09:25 40.11456 50.30519 38047 ft 499 kts 276°
2026-04-18 09:25 40.12180 50.23048 38046 ft 498 kts 276°
2026-04-18 09:26 40.13046 50.14061 38047 ft 498 kts 276°
2026-04-18 09:26 40.13904 50.05081 38046 ft 498 kts 276°
2026-04-18 09:27 40.14755 49.96096 38046 ft 498 kts 276°
2026-04-18 09:27 40.15587 49.87249 38047 ft 498 kts 276°
2026-04-18 09:28 40.16415 49.78341 38046 ft 498 kts 276°
2026-04-18 09:28 40.17246 49.69351 38047 ft 498 kts 276°
2026-04-18 09:29 40.18069 49.60361 38046 ft 498 kts 276°
2026-04-18 09:29 40.18856 49.51363 38050 ft 498 kts 273°
2026-04-18 09:30 40.18944 49.42327 38042 ft 497 kts 268°
2026-04-18 09:30 40.18834 49.33300 38051 ft 497 kts 268°
2026-04-18 09:31 40.18788 49.24307 38047 ft 498 kts 269°
2026-04-18 09:31 40.18778 49.15248 38045 ft 498 kts 269°
2026-04-18 09:32 40.18767 49.06124 38046 ft 498 kts 269°
2026-04-18 09:32 40.18742 48.97072 38045 ft 498 kts 269°
2026-04-18 09:33 40.18710 48.88082 38051 ft 498 kts 269°
2026-04-18 09:33 40.18664 48.79034 38042 ft 497 kts 268°
2026-04-18 09:34 40.18603 48.69985 38045 ft 497 kts 268°
2026-04-18 09:34 40.18532 48.60962 38047 ft 496 kts 268°
2026-04-18 09:35 40.18457 48.52002 38044 ft 496 kts 268°
2026-04-18 09:35 40.18375 48.42982 38047 ft 496 kts 268°
2026-04-18 09:36 40.18286 48.33942 38045 ft 497 kts 268°
2026-04-18 09:36 40.18191 48.24923 38048 ft 496 kts 268°
2026-04-18 09:37 40.18089 48.15898 38047 ft 496 kts 268°
2026-04-18 09:37 40.17979 48.06923 38047 ft 497 kts 268°
2026-04-18 09:38 40.17863 47.97897 38050 ft 497 kts 268°
2026-04-18 09:38 40.17741 47.88846 38044 ft 497 kts 268°
2026-04-18 09:39 40.17609 47.79812 38045 ft 497 kts 268°
2026-04-18 09:39 40.17471 47.70770 38044 ft 497 kts 268°
2026-04-18 09:40 40.17328 47.61790 38046 ft 497 kts 268°
2026-04-18 09:40 40.17175 47.52721 38050 ft 497 kts 268°
2026-04-18 09:41 40.17018 47.43642 38046 ft 497 kts 268°
2026-04-18 09:41 40.16852 47.34676 38050 ft 497 kts 268°
2026-04-18 09:42 40.16678 47.25641 38048 ft 497 kts 267°
2026-04-18 09:42 40.16495 47.16613 38051 ft 497 kts 267°
2026-04-18 09:43 40.16307 47.07574 38044 ft 497 kts 267°
2026-04-18 09:43 40.16114 46.98598 38043 ft 497 kts 267°
2026-04-18 09:44 40.15914 46.89567 38047 ft 497 kts 267°
2026-04-18 09:44 40.15704 46.80558 38049 ft 496 kts 267°
2026-04-18 09:45 40.15490 46.71523 38051 ft 497 kts 267°
2026-04-18 09:45 40.15268 46.62495 38043 ft 497 kts 267°
2026-04-18 09:46 40.15037 46.53476 38044 ft 497 kts 267°
2026-04-18 09:46 40.14800 46.44432 38043 ft 498 kts 267°
2026-04-18 09:47 40.14557 46.35453 38046 ft 497 kts 267°
2026-04-18 09:47 40.14306 46.26429 38044 ft 497 kts 267°
2026-04-18 09:48 40.14049 46.17397 38043 ft 497 kts 267°
2026-04-18 09:48 40.13786 46.08383 38049 ft 496 kts 266°
2026-04-18 09:49 40.13516 45.99368 38050 ft 497 kts 266°
2026-04-18 09:49 40.13317 45.90342 38042 ft 497 kts 269°
2026-04-18 09:50 40.13371 45.81382 38044 ft 497 kts 269°
2026-04-18 09:50 40.13419 45.72369 38047 ft 497 kts 269°
2026-04-18 09:51 40.13415 45.63334 38045 ft 496 kts 269°
2026-04-18 09:51 40.13401 45.54324 38047 ft 496 kts 269°
2026-04-18 09:52 40.13376 45.45355 38049 ft 497 kts 269°
2026-04-18 09:52 40.13344 45.36333 38046 ft 497 kts 269°
2026-04-18 09:53 40.13307 45.27291 38047 ft 497 kts 269°
2026-04-18 09:53 40.13272 45.18252 38045 ft 498 kts 269°
2026-04-18 09:54 40.13241 45.09200 38046 ft 497 kts 269°
2026-04-18 09:54 40.13202 45.00166 38049 ft 498 kts 269°
2026-04-18 09:55 40.13146 44.91110 38043 ft 498 kts 268°
2026-04-18 09:55 40.13075 44.82013 38049 ft 498 kts 268°
2026-04-18 09:56 40.12998 44.73031 38052 ft 498 kts 268°
2026-04-18 09:56 40.12918 44.63995 38042 ft 498 kts 268°
2026-04-18 09:57 40.12831 44.54955 38044 ft 497 kts 268°
2026-04-18 09:57 40.12736 44.45938 38049 ft 497 kts 268°
2026-04-18 09:58 40.12631 44.36729 38045 ft 497 kts 268°
2026-04-18 09:58 40.12523 44.27712 38047 ft 497 kts 268°
2026-04-18 09:59 40.12407 44.18673 38046 ft 497 kts 268°
2026-04-18 10:00 40.12220 44.05117 38047 ft 497 kts 268°
2026-04-18 10:00 40.12085 43.96090 38045 ft 497 kts 268°
2026-04-18 10:01 40.11946 43.87129 38044 ft 497 kts 268°
2026-04-18 10:01 40.11799 43.78099 38046 ft 497 kts 268°
2026-04-18 10:02 40.11646 43.69082 38045 ft 497 kts 268°
2026-04-18 10:02 40.11355 43.60075 38044 ft 496 kts 265°
2026-04-18 10:03 40.10801 43.51088 38048 ft 496 kts 264°
2026-04-18 10:03 40.10283 43.42149 38045 ft 496 kts 265°
2026-04-18 10:04 40.09791 43.33156 38045 ft 496 kts 265°
2026-04-18 10:04 40.09283 43.24168 38049 ft 496 kts 265°
2026-04-18 10:05 40.08765 43.15182 38049 ft 497 kts 264°
2026-04-18 10:05 40.08244 43.06239 38047 ft 497 kts 264°
2026-04-18 10:06 40.07718 42.97250 38048 ft 497 kts 264°
2026-04-18 10:06 40.07180 42.88247 38038 ft 497 kts 264°
2026-04-18 10:07 40.06636 42.79269 38040 ft 497 kts 264°
2026-04-18 10:07 40.06091 42.70335 38046 ft 497 kts 264°
2026-04-18 10:08 40.05537 42.61328 38047 ft 497 kts 264°
2026-04-18 10:08 40.04973 42.52343 38043 ft 497 kts 264°
2026-04-18 10:09 40.04408 42.43422 38049 ft 496 kts 264°
2026-04-18 10:09 40.03814 42.34455 38045 ft 496 kts 264°
2026-04-18 10:10 40.03202 42.25504 38045 ft 496 kts 264°
2026-04-18 10:10 40.02586 42.16552 38049 ft 496 kts 264°
2026-04-18 10:11 40.01965 42.07585 38046 ft 496 kts 264°
2026-04-18 10:11 40.01338 41.98626 38048 ft 496 kts 264°
2026-04-18 10:12 40.00707 41.89705 38047 ft 497 kts 264°
2026-04-18 10:12 40.00065 41.80733 38046 ft 497 kts 263°
2026-04-18 10:13 39.99417 41.71761 38047 ft 497 kts 263°
2026-04-18 10:13 39.98777 41.62788 38047 ft 497 kts 264°
2026-04-18 10:14 39.98141 41.53858 38044 ft 497 kts 263°
2026-04-18 10:14 39.97490 41.44893 38046 ft 496 kts 263°
2026-04-18 10:15 39.96833 41.35939 38050 ft 496 kts 263°
2026-04-18 10:15 39.96171 41.26988 38045 ft 496 kts 263°
2026-04-18 10:16 39.95635 41.18024 38046 ft 496 kts 268°
2026-04-18 10:16 39.95634 41.09080 38048 ft 497 kts 269°
2026-04-18 10:17 39.95680 41.00074 38044 ft 497 kts 269°
2026-04-18 10:17 39.95681 40.91072 38046 ft 497 kts 269°
2026-04-18 10:18 39.95656 40.82064 38046 ft 497 kts 269°
2026-04-18 10:18 39.95625 40.73099 38044 ft 497 kts 269°
2026-04-18 10:19 39.95591 40.64094 38047 ft 497 kts 269°
2026-04-18 10:19 39.95554 40.55085 38049 ft 497 kts 269°
2026-04-18 10:20 39.95509 40.46069 38048 ft 497 kts 269°
2026-04-18 10:20 39.95458 40.37108 38043 ft 497 kts 268°
2026-04-18 10:21 39.95401 40.28095 38046 ft 498 kts 268°
2026-04-18 10:21 39.95338 40.19086 38047 ft 497 kts 268°
2026-04-18 10:22 39.95265 40.10062 38047 ft 497 kts 268°
2026-04-18 10:22 39.95189 40.01117 38045 ft 498 kts 268°
2026-04-18 10:23 39.95105 39.92096 38048 ft 498 kts 268°
2026-04-18 10:23 39.95028 39.83098 38046 ft 497 kts 268°
2026-04-18 10:24 39.94954 39.74086 38058 ft 497 kts 268°
2026-04-18 10:24 39.94873 39.65081 38046 ft 497 kts 268°
2026-04-18 10:25 39.94783 39.56136 38043 ft 497 kts 268°
2026-04-18 10:25 39.94664 39.47128 38051 ft 497 kts 268°
2026-04-18 10:26 39.94533 39.38141 38043 ft 497 kts 268°
2026-04-18 10:26 39.94401 39.29196 38046 ft 497 kts 268°
2026-04-18 10:27 39.94262 39.20206 38049 ft 497 kts 268°
2026-04-18 10:27 39.94116 39.11196 38048 ft 497 kts 268°
2026-04-18 10:28 39.93957 39.02195 38044 ft 498 kts 268°
2026-04-18 10:28 39.93788 38.93240 38050 ft 498 kts 268°
2026-04-18 10:29 39.93473 38.84241 38051 ft 497 kts 264°
2026-04-18 10:29 39.92868 38.75272 38041 ft 497 kts 263°
2026-04-18 10:30 39.92229 38.66312 38045 ft 496 kts 264°
2026-04-18 10:30 39.91612 38.57379 38045 ft 496 kts 264°
2026-04-18 10:31 39.91005 38.48480 38050 ft 496 kts 264°
2026-04-18 10:31 39.90391 38.39539 38046 ft 496 kts 264°
2026-04-18 10:32 39.89769 38.30596 38050 ft 496 kts 264°
2026-04-18 10:32 39.89138 38.21649 38050 ft 496 kts 264°
2026-04-18 10:33 39.88503 38.12753 38046 ft 497 kts 263°
2026-04-18 10:33 39.87858 38.03804 38043 ft 497 kts 263°
2026-04-18 10:34 39.87207 37.94856 38048 ft 497 kts 263°
2026-04-18 10:34 39.86546 37.85911 38047 ft 497 kts 263°
2026-04-18 10:35 39.85881 37.76966 38047 ft 497 kts 263°
2026-04-18 10:35 39.85212 37.68070 38045 ft 497 kts 263°
2026-04-18 10:36 39.84534 37.59125 38045 ft 496 kts 263°
2026-04-18 10:36 39.83848 37.50188 38046 ft 496 kts 263°
2026-04-18 10:37 39.83157 37.41265 38048 ft 496 kts 263°
2026-04-18 10:37 39.82448 37.32402 38048 ft 496 kts 263°
2026-04-18 10:38 39.81723 37.23480 38046 ft 496 kts 263°
2026-04-18 10:38 39.80997 37.14562 38046 ft 496 kts 263°
2026-04-18 10:39 39.80262 37.05639 38047 ft 496 kts 263°
2026-04-18 10:39 39.79522 36.96727 38046 ft 496 kts 262°
2026-04-18 10:39 39.78805 36.92365 38041 ft 493 kts 250°
2026-04-18 10:40 39.77452 36.88278 38057 ft 491 kts 240°
2026-04-18 10:40 39.73364 36.81318 38056 ft 489 kts 225°
2026-04-18 10:41 39.68612 36.74987 38045 ft 490 kts 225°
2026-04-18 10:41 39.63877 36.68599 38051 ft 491 kts 225°
2026-04-18 10:42 39.59185 36.62158 38046 ft 492 kts 226°
2026-04-18 10:42 39.54528 36.55754 38046 ft 492 kts 226°
2026-04-18 10:43 39.49826 36.49316 38045 ft 491 kts 225°
2026-04-18 10:43 39.45116 36.42924 38049 ft 491 kts 225°
2026-04-18 10:44 39.40396 36.36541 38048 ft 491 kts 225°
2026-04-18 10:44 39.35678 36.30168 38047 ft 491 kts 225°
2026-04-18 10:45 39.30984 36.23837 38050 ft 491 kts 225°
2026-04-18 10:45 39.26259 36.17472 38043 ft 491 kts 225°
2026-04-18 10:46 39.21527 36.11112 38047 ft 491 kts 225°
2026-04-18 10:46 39.17249 36.04325 38038 ft 491 kts 244°
2026-04-18 10:46 39.16164 36.00214 38054 ft 492 kts 258°
2026-04-18 10:47 39.15872 35.95826 38043 ft 495 kts 274°
2026-04-18 10:47 39.16768 35.87048 38048 ft 496 kts 277°
2026-04-18 10:48 39.17704 35.78225 38050 ft 498 kts 276°
2026-04-18 10:48 39.18559 35.69358 38050 ft 500 kts 276°
2026-04-18 10:49 39.19374 35.60452 38045 ft 501 kts 276°
2026-04-18 10:49 39.20177 35.51589 38046 ft 501 kts 276°
2026-04-18 10:50 39.20983 35.42682 38045 ft 500 kts 276°
2026-04-18 10:50 39.21785 35.33778 38049 ft 500 kts 276°
2026-04-18 10:51 39.22580 35.24877 38044 ft 499 kts 275°
2026-04-18 10:51 39.23366 35.15986 38046 ft 498 kts 275°
2026-04-18 10:52 39.24137 35.07181 38046 ft 497 kts 275°
2026-04-18 10:52 39.24910 34.98310 38048 ft 497 kts 275°
2026-04-18 10:53 39.25556 34.90827 38044 ft 497 kts 275°
2026-04-18 10:53 39.26438 34.80507 38044 ft 497 kts 275°
2026-04-18 10:54 39.27068 34.73077 38048 ft 497 kts 275°
2026-04-18 10:54 39.27809 34.64267 38050 ft 497 kts 275°
2026-04-18 10:55 39.28548 34.55398 38048 ft 497 kts 275°
2026-04-18 10:55 39.29281 34.46514 38047 ft 498 kts 275°
2026-04-18 10:56 39.30007 34.37627 38046 ft 498 kts 275°
2026-04-18 10:56 39.30721 34.28802 38047 ft 497 kts 275°
2026-04-18 10:57 39.31433 34.19913 38046 ft 498 kts 275°
2026-04-18 10:57 39.32139 34.11033 38046 ft 498 kts 275°
2026-04-18 10:58 39.32840 34.02126 38045 ft 498 kts 275°
2026-04-18 10:58 39.33540 33.93274 38047 ft 498 kts 275°
2026-04-18 10:59 39.34290 33.84322 38045 ft 499 kts 275°
2026-04-18 10:59 39.35037 33.75416 38048 ft 498 kts 275°
2026-04-18 11:00 39.35757 33.66665 37996 ft 484 kts 276°
2026-04-18 11:00 39.36458 33.58025 38007 ft 484 kts 276°
2026-04-18 11:01 39.37154 33.49363 38001 ft 484 kts 276°
2026-04-18 11:01 39.37843 33.40720 38004 ft 483 kts 276°
2026-04-18 11:02 39.38800 33.27781 38000 ft 481 kts 275°
2026-04-18 11:02 39.39356 33.19223 38003 ft 482 kts 275°
2026-04-18 11:03 39.39920 33.10587 38003 ft 483 kts 275°
2026-04-18 11:03 39.40488 33.01914 38000 ft 484 kts 275°
2026-04-18 11:04 39.41050 32.93235 38004 ft 484 kts 275°
2026-04-18 11:04 39.41604 32.84610 38002 ft 485 kts 275°
2026-04-18 11:05 39.42156 32.75924 38000 ft 485 kts 275°
2026-04-18 11:05 39.42701 32.67233 38000 ft 485 kts 275°
2026-04-18 11:06 39.43239 32.58539 38003 ft 485 kts 274°
2026-04-18 11:06 39.42889 32.49854 38006 ft 485 kts 259°
2026-04-18 11:07 39.40950 32.41528 38008 ft 484 kts 248°
2026-04-18 11:07 39.38395 32.33520 38002 ft 484 kts 248°
2026-04-18 11:08 39.35852 32.25466 38002 ft 484 kts 248°
2026-04-18 11:08 39.33319 32.17423 37998 ft 482 kts 248°
2026-04-18 11:09 39.31786 32.12559 38000 ft 481 kts 248°
2026-04-18 11:09 39.30336 32.07969 38001 ft 481 kts 248°
2026-04-18 11:10 39.27805 31.99977 38001 ft 482 kts 248°
2026-04-18 11:10 39.25262 31.91968 38002 ft 482 kts 248°
2026-04-18 11:11 39.22714 31.83967 38000 ft 482 kts 248°
2026-04-18 11:11 39.19870 31.76144 38006 ft 482 kts 242°
2026-04-18 11:12 39.16736 31.68550 38006 ft 483 kts 242°
2026-04-18 11:12 39.13570 31.60932 38000 ft 482 kts 242°
2026-04-18 11:13 39.10428 31.53306 38003 ft 482 kts 242°
2026-04-18 11:13 39.07292 31.45674 38002 ft 483 kts 242°
2026-04-18 11:14 39.04150 31.38043 38001 ft 483 kts 242°
2026-04-18 11:14 39.01017 31.30455 38002 ft 483 kts 242°
2026-04-18 11:15 38.97861 31.22831 38000 ft 483 kts 242°
2026-04-18 11:15 38.94695 31.15205 38003 ft 484 kts 242°
2026-04-18 11:16 38.91516 31.07565 38002 ft 486 kts 242°
2026-04-18 11:16 38.88325 30.99916 38002 ft 487 kts 242°
2026-04-18 11:17 38.85138 30.92293 38003 ft 488 kts 242°
2026-04-18 11:17 38.81924 30.84626 38003 ft 488 kts 242°
2026-04-18 11:18 38.78710 30.76977 37999 ft 487 kts 242°
2026-04-18 11:18 38.75520 30.69401 37999 ft 485 kts 242°
2026-04-18 11:19 38.72913 30.61488 38000 ft 483 kts 256°
2026-04-18 11:19 38.72107 30.52996 37999 ft 483 kts 271°
2026-04-18 11:20 38.72334 30.44382 38007 ft 487 kts 272°
2026-04-18 11:20 38.72582 30.35712 38004 ft 487 kts 271°
2026-04-18 11:21 38.72754 30.27113 37996 ft 485 kts 271°
2026-04-18 11:21 38.72900 30.18505 37998 ft 484 kts 271°
2026-04-18 11:22 38.73042 30.09871 38005 ft 485 kts 271°
2026-04-18 11:22 38.73143 30.01189 38006 ft 490 kts 268°
2026-04-18 11:23 38.72399 29.92498 38008 ft 493 kts 261°
2026-04-18 11:23 38.71275 29.83965 37989 ft 485 kts 260°
2026-04-18 11:24 38.70183 29.75505 38000 ft 480 kts 261°
2026-04-18 11:24 38.69124 29.67051 38008 ft 483 kts 261°
2026-04-18 11:25 38.68060 29.58549 38001 ft 484 kts 261°
2026-04-18 11:25 38.66989 29.50061 37999 ft 482 kts 261°
2026-04-18 11:26 38.65999 29.41654 37997 ft 481 kts 263°
2026-04-18 11:26 38.65193 29.33128 38006 ft 482 kts 263°
2026-04-18 11:27 38.64375 29.24616 38001 ft 482 kts 263°
2026-04-18 11:27 38.63522 29.16138 37997 ft 480 kts 263°
2026-04-18 11:28 38.62672 29.07737 38002 ft 480 kts 263°
2026-04-18 11:28 38.61833 28.99252 38005 ft 482 kts 263°
2026-04-18 11:29 38.60989 28.90777 37999 ft 479 kts 263°
2026-04-18 11:29 38.60139 28.82339 38002 ft 478 kts 263°
2026-04-18 11:30 38.59284 28.73906 37948 ft 476 kts 263°
2026-04-18 11:30 38.58857 28.69718 37675 ft 477 kts 262°
2026-04-18 11:30 38.58430 28.65553 37268 ft 480 kts 262°
2026-04-18 11:31 38.57852 28.61357 36899 ft 480 kts 257°
2026-04-18 11:31 38.57006 28.57223 36533 ft 482 kts 255°
2026-04-18 11:31 38.56100 28.53102 35831 ft 483 kts 254°
2026-04-18 11:31 38.55181 28.48958 34918 ft 485 kts 254°
2026-04-18 11:32 38.54274 28.44816 33956 ft 486 kts 255°
2026-04-18 11:32 38.53376 28.40643 33183 ft 484 kts 255°
2026-04-18 11:32 38.52498 28.36526 32489 ft 479 kts 255°
2026-04-18 11:32 38.51633 28.32486 31813 ft 474 kts 254°
2026-04-18 11:33 38.50531 28.28545 31141 ft 470 kts 245°
2026-04-18 11:33 38.48971 28.24912 30499 ft 466 kts 237°
2026-04-18 11:33 38.47081 28.21577 29862 ft 461 kts 230°
2026-04-18 11:33 38.44901 28.18619 29226 ft 457 kts 226°
2026-04-18 11:34 38.42674 28.15743 28576 ft 453 kts 225°
2026-04-18 11:34 38.40462 28.12907 27939 ft 450 kts 225°
2026-04-18 11:34 38.38256 28.10071 27274 ft 448 kts 225°